Home > Weather > Halton Hills > Past weeks

Flag for Canada Weather for the Past 2 Weeks in Halton Hills, Ontario, Canada

Now
50 °F

Broken clouds.


Feels Like: 50 °F
Forecast: 39 / 60 °F
Wind: 2 mph from South

Location: Toronto Pearson International Airport

Current Time: May 3, 2016 at 9:00:28 PM

Latest Report: May 3, 2016 at 8:00 PM


Visibility: 15 mi

Pressure: 29.81 "Hg

Humidity: 67%

Dew Point: 39 °F

Location of Halton HillsLocation

Historic Weather in Halton Hills — Graph

°F

Halton Hills Temperature Yesterday

Maximum temperature yesterday: 54 °F (at 3:00 PM)
Minimum temperature yesterday: 43 °F (at 7:00 AM)
Average temperature yesterday: 47 °F

High & Low Weather Summary for the Past Weeks

 TemperatureHumidityPressure
High77 °F (Apr 18, 7:00 PM)94% (Apr 22, 12:00 AM)30.37 "Hg (Apr 22, 12:00 AM)
Low34 °F (Apr 24, 6:00 AM)13% (Apr 20, 5:00 PM)29.76 "Hg (Apr 26, 5:00 AM)
Average47 °F57%30.06 "Hg
* Reported Apr 18 7:00 PM — May 3 7:00 PM, Halton Hills, Weather by CustomWeather, © 2016

Note: Actual official high and low records may vary slightly from our data, if they occured in-between our weather recording intervals... More about our weather records

Advertising

Halton Hills Weather History for the Previous 24 Hours

Scroll right to see more
 ConditionsComfort  
Time TempWeatherWind HumidityBarometerVisibility
7:00 PM
Tue, May 3
52 °FPartly sunny.5 mph62%29.81 "Hg15 mi
6:00 PM52 °FPartly sunny.6 mph62%29.82 "Hg15 mi
5:00 PM52 °FBroken clouds.6 mph62%29.83 "Hg15 mi
4:00 PM52 °FPartly sunny.6 mph62%29.83 "Hg15 mi
3:00 PM54 °FBroken clouds.8 mph54%29.85 "Hg15 mi
2:00 PM54 °FPartly sunny.13 mph58%29.86 "Hg15 mi
1:00 PM54 °FBroken clouds.12 mph67%29.87 "Hg15 mi
12:00 PM55 °FScattered clouds.10 mph59%29.88 "Hg15 mi
11:00 AM55 °FScattered clouds.8 mph55%29.89 "Hg15 mi
10:00 AM54 °FPassing clouds.2 mph58%29.91 "Hg15 mi
9:00 AM52 °FPassing clouds.2 mph62%29.92 "Hg15 mi
8:00 AM48 °FPassing clouds.2 mph71%29.94 "Hg15 mi
7:00 AM45 °FPassing clouds.2 mph76%29.94 "Hg15 mi
6:00 AM41 °FPassing clouds.2 mph87%29.94 "Hg15 mi
5:00 AM45 °FPassing clouds.No wind81%29.95 "Hg15 mi
4:00 AM46 °FPassing clouds.2 mph76%29.96 "Hg15 mi
3:00 AM45 °FPartly cloudy.No wind81%29.97 "Hg15 mi
2:00 AM45 °FPassing clouds.2 mph81%29.98 "Hg15 mi
1:00 AM43 °FPassing clouds.2 mph76%29.98 "Hg15 mi
12:00 AM45 °FPassing clouds.3 mph71%29.98 "Hg15 mi
11:00 PM
Mon, May 2
46 °FPassing clouds.No wind71%29.99 "Hg15 mi
10:00 PM46 °FPassing clouds.2 mph71%30.01 "Hg15 mi
9:00 PM48 °FPartly sunny.3 mph66%30.00 "Hg15 mi
Weather by CustomWeather, © 2016

See weather overviewHow to use our weather pages